Location: Geroldsau
(48.7259°N, 8.2466°E)
Time: 22:57:43
(UTC+00:00)

Meteor 2-2 Rocket - Visible Passes

Search period start: 23 October 2021 00:00
Search period end: 02 November 2021 00:00
Orbit: 853 x 928 km, 81.3° (Epoch: 23 October)

Date Brightness Start Highest point End Pass type
(mag) Time Alt. Az. Time Alt. Az. Time Alt. Az.
29 Oct 6.9 05:34:24 10° NNE 05:37:52 15° NE 05:41:18 10° E visible
30 Oct 6.8 05:34:01 10° NNE 05:37:54 17° ENE 05:41:45 10° E visible
31 Oct 6.8 05:33:40 10° NNE 05:37:55 19° ENE 05:42:08 10° ESE visible
01 Nov 6.7 05:33:22 10° NNE 05:37:56 22° ENE 05:42:27 10° ESE visible
